Year,Month,Day,Hour,Minute,Value (Times are PST for windspeed in km/hr)
2005,11,01,00,00,5.10
2005,11,01,00,01,4.80
2005,11,01,00,02,4.30
2005,11,01,00,03,4.60
2005,11,01,00,04,5.10
2005,11,01,00,05,4.80
2005,11,01,00,06,5.20
2005,11,01,00,07,5.60
2005,11,01,00,08,6.00
2005,11,01,00,09,6.30
2005,11,01,00,10,6.10
2005,11,01,00,11,5.70
2005,11,01,00,12,5.80
2005,11,01,00,13,5.60
2005,11,01,00,14,5.30
2005,11,01,00,15,7.60
2005,11,01,00,16,6.20
2005,11,01,00,17,6.10
2005,11,01,00,18,8.90
2005,11,01,00,19,7.20
2005,11,01,00,20,7.90
2005,11,01,00,21,6.80
2005,11,01,00,22,7.70
2005,11,01,00,23,7.10
2005,11,01,00,24,5.90
2005,11,01,00,25,7.40
2005,11,01,00,26,7.50
2005,11,01,00,27,5.70
2005,11,01,00,28,6.40
2005,11,01,00,29,6.40
2005,11,01,00,30,5.10
2005,11,01,00,31,8.50
2005,11,01,00,32,6.10
2005,11,01,00,33,5.00
2005,11,01,00,34,6.00
2005,11,01,00,35,8.70
2005,11,01,00,36,8.60
2005,11,01,00,37,10.90
2005,11,01,00,38,7.60
2005,11,01,00,39,6.90
2005,11,01,00,40,7.20
2005,11,01,00,41,8.50
2005,11,01,00,42,9.40
2005,11,01,00,43,9.40
2005,11,01,00,44,9.60
2005,11,01,00,45,9.00
2005,11,01,00,46,11.10
2005,11,01,00,47,9.30
2005,11,01,00,48,7.70
2005,11,01,00,49,7.10
2005,11,01,00,50,5.50
2005,11,01,00,51,5.20
2005,11,01,00,52,6.80
2005,11,01,00,53,6.00
2005,11,01,00,54,5.80
2005,11,01,00,55,6.40
2005,11,01,00,56,8.50
2005,11,01,00,57,8.30
2005,11,01,00,58,7.40
2005,11,01,00,59,6.40
2005,11,01,01,00,5.80
2005,11,01,01,01,6.40
2005,11,01,01,02,4.30
2005,11,01,01,03,5.10
2005,11,01,01,04,6.40
2005,11,01,01,05,4.70
2005,11,01,01,06,5.70
2005,11,01,01,07,6.40
2005,11,01,01,08,6.50
2005,11,01,01,09,5.60
2005,11,01,01,10,6.40
2005,11,01,01,11,5.30
2005,11,01,01,12,4.20
2005,11,01,01,13,4.30
2005,11,01,01,14,4.80
2005,11,01,01,15,5.00
2005,11,01,01,16,4.50
2005,11,01,01,17,4.10
2005,11,01,01,18,3.50
2005,11,01,01,19,5.90
2005,11,01,01,20,7.10
2005,11,01,01,21,7.90
2005,11,01,01,22,8.90
2005,11,01,01,23,9.00
2005,11,01,01,24,7.70
2005,11,01,01,25,5.50
2005,11,01,01,26,5.60
2005,11,01,01,27,6.20
2005,11,01,01,28,5.00
2005,11,01,01,29,6.10
2005,11,01,01,30,6.90
2005,11,01,01,31,7.30
2005,11,01,01,32,6.10
2005,11,01,01,33,5.90
2005,11,01,01,34,5.30
2005,11,01,01,35,6.00
2005,11,01,01,36,4.90
2005,11,01,01,37,4.30
2005,11,01,01,38,3.00
2005,11,01,01,39,4.10
2005,11,01,01,40,3.40
2005,11,01,01,41,2.60
2005,11,01,01,42,3.90
2005,11,01,01,43,0.90
2005,11,01,01,44,0.20
2005,11,01,01,45,0.40
2005,11,01,01,46,0.90
2005,11,01,01,47,0.70
2005,11,01,01,48,0.00
2005,11,01,01,49,0.60
2005,11,01,01,50,1.00
2005,11,01,01,51,2.50
2005,11,01,01,52,2.50
2005,11,01,01,53,2.70
2005,11,01,01,54,3.90
2005,11,01,01,55,1.60
2005,11,01,01,56,1.80
2005,11,01,01,57,5.10
2005,11,01,01,58,6.30
2005,11,01,01,59,6.40
2005,11,01,02,00,5.00
2005,11,01,02,01,7.30
2005,11,01,02,02,7.50
2005,11,01,02,03,6.10
2005,11,01,02,04,6.10
2005,11,01,02,05,5.00
2005,11,01,02,06,4.90
2005,11,01,02,07,5.70
2005,11,01,02,08,9.70
2005,11,01,02,09,7.90
2005,11,01,02,10,8.60
2005,11,01,02,11,9.90
2005,11,01,02,12,9.10
2005,11,01,02,13,10.00
2005,11,01,02,14,9.20
2005,11,01,02,15,8.40
2005,11,01,02,16,9.20
2005,11,01,02,17,10.30
2005,11,01,02,18,7.10
2005,11,01,02,19,8.70
2005,11,01,02,20,8.30
2005,11,01,02,21,14.50
2005,11,01,02,22,12.90
2005,11,01,02,23,10.60
2005,11,01,02,24,12.70
2005,11,01,02,25,14.40
2005,11,01,02,26,10.60
2005,11,01,02,27,9.80
2005,11,01,02,28,8.90
2005,11,01,02,29,8.30
2005,11,01,02,30,10.70
2005,11,01,02,31,9.30
2005,11,01,02,32,15.00
2005,11,01,02,33,12.30
2005,11,01,02,34,13.70
2005,11,01,02,35,13.40
2005,11,01,02,36,14.00
2005,11,01,02,37,12.60
2005,11,01,02,38,8.80
2005,11,01,02,39,6.90
2005,11,01,02,40,8.60
2005,11,01,02,41,5.00
2005,11,01,02,42,5.10
2005,11,01,02,43,5.00
2005,11,01,02,44,5.60
2005,11,01,02,45,6.60
2005,11,01,02,46,6.40
2005,11,01,02,47,5.20
2005,11,01,02,48,4.70
2005,11,01,02,49,5.10
2005,11,01,02,50,4.70
2005,11,01,02,51,4.80
2005,11,01,02,52,5.20
2005,11,01,02,53,4.30
2005,11,01,02,54,6.80
2005,11,01,02,55,6.40
2005,11,01,02,56,4.60
2005,11,01,02,57,5.40
2005,11,01,02,58,5.50
2005,11,01,02,59,6.10
2005,11,01,03,00,4.70
2005,11,01,03,01,5.70
2005,11,01,03,02,4.70
2005,11,01,03,03,4.90
2005,11,01,03,04,5.30
2005,11,01,03,05,5.70
2005,11,01,03,06,6.20
2005,11,01,03,07,4.70
2005,11,01,03,08,4.10
2005,11,01,03,09,5.20
2005,11,01,03,10,3.90
2005,11,01,03,11,5.10
2005,11,01,03,12,4.70
2005,11,01,03,13,3.60
2005,11,01,03,14,6.00
2005,11,01,03,15,5.20
2005,11,01,03,16,5.40
2005,11,01,03,17,6.10
2005,11,01,03,18,5.80
2005,11,01,03,19,8.00
2005,11,01,03,20,5.50
2005,11,01,03,21,5.50
2005,11,01,03,22,3.70
2005,11,01,03,23,5.70
2005,11,01,03,24,4.90
2005,11,01,03,25,3.40
2005,11,01,03,26,6.00
2005,11,01,03,27,4.80
2005,11,01,03,28,6.00
2005,11,01,03,29,6.00
2005,11,01,03,30,6.60
2005,11,01,03,31,6.00
2005,11,01,03,32,5.70
2005,11,01,03,33,6.30
2005,11,01,03,34,7.00
2005,11,01,03,35,5.60
2005,11,01,03,36,6.50
2005,11,01,03,37,4.70
2005,11,01,03,38,6.60
2005,11,01,03,39,8.40
2005,11,01,03,40,5.70
2005,11,01,03,41,4.20
2005,11,01,03,42,4.40
2005,11,01,03,43,4.80
2005,11,01,03,44,5.10
2005,11,01,03,45,7.40
2005,11,01,03,46,6.20
2005,11,01,03,47,7.60
2005,11,01,03,48,7.60
2005,11,01,03,49,3.60
2005,11,01,03,50,4.00
2005,11,01,03,51,7.90
2005,11,01,03,52,7.20
2005,11,01,03,53,5.40
2005,11,01,03,54,5.90
2005,11,01,03,55,4.20
2005,11,01,03,56,5.10
2005,11,01,03,57,4.70
2005,11,01,03,58,3.60
2005,11,01,03,59,2.50
2005,11,01,04,00,2.90
2005,11,01,04,01,1.60
2005,11,01,04,02,4.50
2005,11,01,04,03,3.70
2005,11,01,04,04,2.30
2005,11,01,04,05,3.00
2005,11,01,04,06,4.30
2005,11,01,04,07,3.10
2005,11,01,04,08,4.10
2005,11,01,04,09,4.50
2005,11,01,04,10,3.30
2005,11,01,04,11,4.60
2005,11,01,04,12,4.10
2005,11,01,04,13,3.30
2005,11,01,04,14,5.70
2005,11,01,04,15,6.10
2005,11,01,04,16,5.30
2005,11,01,04,17,5.70
2005,11,01,04,18,3.60
2005,11,01,04,19,3.50
2005,11,01,04,20,6.00
2005,11,01,04,21,4.40
2005,11,01,04,22,2.60
2005,11,01,04,23,0.40
2005,11,01,04,24,3.50
2005,11,01,04,25,3.90
2005,11,01,04,26,6.60
2005,11,01,04,27,6.40
2005,11,01,04,28,4.80
2005,11,01,04,29,3.50
2005,11,01,04,30,5.10
2005,11,01,04,31,6.20
2005,11,01,04,32,4.30
2005,11,01,04,33,5.90
2005,11,01,04,34,4.40
2005,11,01,04,35,4.60
2005,11,01,04,36,5.40
2005,11,01,04,37,4.70
2005,11,01,04,38,3.30
2005,11,01,04,39,4.80
2005,11,01,04,40,4.00
2005,11,01,04,41,4.80
2005,11,01,04,42,5.00
2005,11,01,04,43,6.40
2005,11,01,04,44,5.40
2005,11,01,04,45,5.20
2005,11,01,04,46,4.60
2005,11,01,04,47,3.00
2005,11,01,04,48,4.30
2005,11,01,04,49,4.30
2005,11,01,04,50,4.80
2005,11,01,04,51,4.10
2005,11,01,04,52,5.00
2005,11,01,04,53,3.20
2005,11,01,04,54,3.20
2005,11,01,04,55,4.60
2005,11,01,04,56,2.80
2005,11,01,04,57,3.10
2005,11,01,04,58,1.70
2005,11,01,04,59,3.00
2005,11,01,05,00,2.20
2005,11,01,05,01,1.20
2005,11,01,05,02,2.60
2005,11,01,05,03,3.60
2005,11,01,05,04,3.80
2005,11,01,05,05,2.00
2005,11,01,05,06,0.50
2005,11,01,05,07,0.00
2005,11,01,05,08,0.00
2005,11,01,05,09,0.00
2005,11,01,05,10,0.00
2005,11,01,05,11,0.10
2005,11,01,05,12,0.00
2005,11,01,05,13,0.00
2005,11,01,05,14,0.00
2005,11,01,05,15,0.10
2005,11,01,05,16,2.00
2005,11,01,05,17,0.60
2005,11,01,05,18,0.00
2005,11,01,05,19,0.00
2005,11,01,05,20,0.00
2005,11,01,05,21,0.00
2005,11,01,05,22,0.30
2005,11,01,05,23,2.20
2005,11,01,05,24,1.70
2005,11,01,05,25,2.70
2005,11,01,05,26,3.00
2005,11,01,05,27,3.60
2005,11,01,05,28,3.20
2005,11,01,05,29,3.50
2005,11,01,05,30,4.60
2005,11,01,05,31,3.40
2005,11,01,05,32,4.30
2005,11,01,05,33,5.20
2005,11,01,05,34,3.90
2005,11,01,05,35,4.70
2005,11,01,05,36,4.70
2005,11,01,05,37,3.30
2005,11,01,05,38,4.50
2005,11,01,05,39,8.40
2005,11,01,05,40,7.00
2005,11,01,05,41,6.80
2005,11,01,05,42,5.50
2005,11,01,05,43,6.80
2005,11,01,05,44,8.90
2005,11,01,05,45,6.70
2005,11,01,05,46,6.30
2005,11,01,05,47,4.70
2005,11,01,05,48,5.90
2005,11,01,05,49,5.50
2005,11,01,05,50,4.50
2005,11,01,05,51,6.30
2005,11,01,05,52,8.40
2005,11,01,05,53,6.30
2005,11,01,05,54,4.20
2005,11,01,05,55,3.10
2005,11,01,05,56,4.80
2005,11,01,05,57,4.80
2005,11,01,05,58,5.60
2005,11,01,05,59,4.80
2005,11,01,06,00,3.90
2005,11,01,06,01,3.40
2005,11,01,06,02,4.30
2005,11,01,06,03,0.20
2005,11,01,06,04,1.60
2005,11,01,06,05,1.80
2005,11,01,06,06,1.40
2005,11,01,06,07,2.70
2005,11,01,06,08,2.10
2005,11,01,06,09,0.80
2005,11,01,06,10,0.20
2005,11,01,06,11,0.00
2005,11,01,06,12,2.40
2005,11,01,06,13,1.20
2005,11,01,06,14,0.70
2005,11,01,06,15,0.20
2005,11,01,06,16,0.60
2005,11,01,06,17,0.00
2005,11,01,06,18,0.20
2005,11,01,06,19,0.90
2005,11,01,06,20,0.00
2005,11,01,06,21,0.00
2005,11,01,06,22,0.00
2005,11,01,06,23,0.00
2005,11,01,06,24,0.00
2005,11,01,06,25,0.00
2005,11,01,06,26,0.00
2005,11,01,06,27,0.00
2005,11,01,06,28,0.00
2005,11,01,06,29,0.00
2005,11,01,06,30,0.00
2005,11,01,06,31,0.00
2005,11,01,06,32,0.00
2005,11,01,06,33,0.00
2005,11,01,06,34,0.00
2005,11,01,06,35,0.00
2005,11,01,06,36,0.00
2005,11,01,06,37,0.00
2005,11,01,06,38,0.00
2005,11,01,06,39,0.00
2005,11,01,06,40,0.00
2005,11,01,06,41,0.00
2005,11,01,06,42,0.00
2005,11,01,06,43,0.00
2005,11,01,06,44,0.00
2005,11,01,06,45,0.00
2005,11,01,06,46,0.00
2005,11,01,06,47,0.00
2005,11,01,06,48,0.00
2005,11,01,06,49,0.00
2005,11,01,06,50,1.10
2005,11,01,06,51,0.20
2005,11,01,06,52,0.00
2005,11,01,06,53,0.00
2005,11,01,06,54,0.10
2005,11,01,06,55,0.00
2005,11,01,06,56,0.00
2005,11,01,06,57,0.00
2005,11,01,06,58,0.00
2005,11,01,06,59,0.00
2005,11,01,07,00,0.00
2005,11,01,07,01,0.00
2005,11,01,07,02,0.00
2005,11,01,07,03,0.00
2005,11,01,07,04,0.00
2005,11,01,07,05,0.00
2005,11,01,07,06,0.00
2005,11,01,07,07,0.00
2005,11,01,07,08,0.00
2005,11,01,07,09,0.00
2005,11,01,07,10,0.00
2005,11,01,07,11,0.00
2005,11,01,07,12,0.00
2005,11,01,07,13,0.00
2005,11,01,07,14,0.00
2005,11,01,07,15,0.00
2005,11,01,07,16,0.00
2005,11,01,07,17,0.00
2005,11,01,07,18,0.00
2005,11,01,07,19,0.00
2005,11,01,07,20,0.00
2005,11,01,07,21,0.00
2005,11,01,07,22,0.00
2005,11,01,07,23,0.00
2005,11,01,07,24,0.00
2005,11,01,07,25,0.00
2005,11,01,07,26,0.00
2005,11,01,07,27,0.00
2005,11,01,07,28,0.00
2005,11,01,07,29,0.00
2005,11,01,07,30,0.00
2005,11,01,07,31,0.00
2005,11,01,07,32,0.00
2005,11,01,07,33,0.00
2005,11,01,07,34,0.00
2005,11,01,07,35,0.00
2005,11,01,07,36,0.00
2005,11,01,07,37,0.00
2005,11,01,07,38,0.00
2005,11,01,07,39,0.00
2005,11,01,07,40,0.00
2005,11,01,07,41,0.00
2005,11,01,07,42,0.00
2005,11,01,07,43,0.00
2005,11,01,07,44,0.00
2005,11,01,07,45,0.00
2005,11,01,07,46,0.00
2005,11,01,07,47,0.00
2005,11,01,07,48,0.00
2005,11,01,07,49,0.00
2005,11,01,07,50,0.00
2005,11,01,07,51,0.00
2005,11,01,07,52,0.00
2005,11,01,07,53,0.00
2005,11,01,07,54,0.00
2005,11,01,07,55,0.00
2005,11,01,07,56,0.00
2005,11,01,07,57,0.00
2005,11,01,07,58,0.00
2005,11,01,07,59,0.00
2005,11,01,08,00,0.00
2005,11,01,08,01,0.00
2005,11,01,08,02,0.00
2005,11,01,08,03,0.00
2005,11,01,08,04,1.00
2005,11,01,08,05,1.30
2005,11,01,08,06,0.00
2005,11,01,08,07,0.60
2005,11,01,08,08,1.40
2005,11,01,08,09,0.00
2005,11,01,08,10,0.90
2005,11,01,08,11,0.10
2005,11,01,08,12,0.90
2005,11,01,08,13,1.10
2005,11,01,08,14,0.60
2005,11,01,08,15,0.30
2005,11,01,08,16,0.00
2005,11,01,08,17,0.40
2005,11,01,08,18,0.10
2005,11,01,08,19,0.00
2005,11,01,08,20,0.00
2005,11,01,08,21,0.20
2005,11,01,08,22,2.40
2005,11,01,08,23,0.30
2005,11,01,08,24,0.00
2005,11,01,08,25,0.00
2005,11,01,08,26,0.00
2005,11,01,08,27,0.60
2005,11,01,08,28,0.20
2005,11,01,08,29,0.30
2005,11,01,08,30,0.10
2005,11,01,08,31,0.00
2005,11,01,08,32,0.50
2005,11,01,08,33,1.30
2005,11,01,08,34,0.60
2005,11,01,08,35,0.30
2005,11,01,08,36,0.80
2005,11,01,08,37,1.00
2005,11,01,08,38,0.00
2005,11,01,08,39,0.10
2005,11,01,08,40,2.00
2005,11,01,08,41,0.50
2005,11,01,08,42,0.00
2005,11,01,08,43,0.10
2005,11,01,08,44,0.00
2005,11,01,08,45,0.70
2005,11,01,08,46,0.20
2005,11,01,08,47,0.60
2005,11,01,08,48,0.10
2005,11,01,08,49,0.60
2005,11,01,08,50,0.00
2005,11,01,08,51,0.10
2005,11,01,08,52,1.60
2005,11,01,08,53,0.00
2005,11,01,08,54,0.00
2005,11,01,08,55,0.00
2005,11,01,08,56,0.20
2005,11,01,08,57,1.00
2005,11,01,08,58,1.70
2005,11,01,08,59,1.00
2005,11,01,09,00,1.90
2005,11,01,09,01,1.00
2005,11,01,09,02,1.10
2005,11,01,09,03,0.40
2005,11,01,09,04,0.70
2005,11,01,09,05,0.00
2005,11,01,09,06,0.10
2005,11,01,09,07,0.20
2005,11,01,09,08,0.00
2005,11,01,09,09,0.00
2005,11,01,09,10,0.40
2005,11,01,09,11,0.40
2005,11,01,09,12,0.20
2005,11,01,09,13,0.00
2005,11,01,09,14,0.00
2005,11,01,09,15,0.00
2005,11,01,09,16,0.00
2005,11,01,09,17,0.00
2005,11,01,09,18,0.00
2005,11,01,09,19,0.80
2005,11,01,09,20,0.30
2005,11,01,09,21,0.00
2005,11,01,09,22,0.20
2005,11,01,09,23,0.00
2005,11,01,09,24,0.00
2005,11,01,09,25,0.00
2005,11,01,09,26,0.10
2005,11,01,09,27,0.20
2005,11,01,09,28,0.90
2005,11,01,09,29,0.60
2005,11,01,09,30,0.00
2005,11,01,09,31,0.00
2005,11,01,09,32,0.00
2005,11,01,09,33,0.00
2005,11,01,09,34,0.00
2005,11,01,09,35,0.00
2005,11,01,09,36,0.00
2005,11,01,09,37,1.20
2005,11,01,09,38,0.90
2005,11,01,09,39,3.20
2005,11,01,09,40,1.90
2005,11,01,09,41,1.50
2005,11,01,09,42,0.30
2005,11,01,09,43,1.30
2005,11,01,09,44,0.30
2005,11,01,09,45,0.60
2005,11,01,09,46,2.10
2005,11,01,09,47,1.60
2005,11,01,09,48,0.60
2005,11,01,09,49,1.90
2005,11,01,09,50,1.10
2005,11,01,09,51,0.00
2005,11,01,09,52,1.30
2005,11,01,09,53,3.20
2005,11,01,09,54,3.50
2005,11,01,09,55,3.10
2005,11,01,09,56,3.20
2005,11,01,09,57,1.40
2005,11,01,09,58,2.40
2005,11,01,09,59,2.20
2005,11,01,10,00,1.40
2005,11,01,10,01,1.90
2005,11,01,10,02,2.00
2005,11,01,10,03,3.20
2005,11,01,10,04,3.20
2005,11,01,10,05,2.20
2005,11,01,10,06,0.00
2005,11,01,10,07,0.00
2005,11,01,10,08,0.00
2005,11,01,10,09,0.00
2005,11,01,10,10,0.70
2005,11,01,10,11,0.30
2005,11,01,10,12,0.60
2005,11,01,10,13,2.90
2005,11,01,10,14,3.50
2005,11,01,10,15,2.00
2005,11,01,10,16,1.40
2005,11,01,10,17,0.50
2005,11,01,10,18,0.30
2005,11,01,10,19,2.40
2005,11,01,10,20,0.60
2005,11,01,10,21,2.00
2005,11,01,10,22,1.60
2005,11,01,10,23,2.00
2005,11,01,10,24,2.40
2005,11,01,10,25,2.90
2005,11,01,10,26,2.20
2005,11,01,10,27,1.30
2005,11,01,10,28,0.90
2005,11,01,10,29,1.70
2005,11,01,10,30,0.70
2005,11,01,10,31,0.00
2005,11,01,10,32,0.00
2005,11,01,10,33,0.00
2005,11,01,10,34,0.00
2005,11,01,10,35,0.00
2005,11,01,10,36,0.00
2005,11,01,10,37,0.00
2005,11,01,10,38,0.00
2005,11,01,10,39,0.00
2005,11,01,10,40,0.00
2005,11,01,10,41,0.20
2005,11,01,10,42,0.30
2005,11,01,10,43,1.60
2005,11,01,10,44,1.60
2005,11,01,10,45,3.30
2005,11,01,10,46,2.20
2005,11,01,10,47,1.60
2005,11,01,10,48,1.60
2005,11,01,10,49,1.60
2005,11,01,10,50,1.60
2005,11,01,10,51,3.00
2005,11,01,10,52,1.40
2005,11,01,10,53,1.60
2005,11,01,10,54,5.20
2005,11,01,10,55,3.30
2005,11,01,10,56,2.70
2005,11,01,10,57,1.80
2005,11,01,10,58,1.20
2005,11,01,10,59,4.00
2005,11,01,11,00,4.90
2005,11,01,11,01,5.10
2005,11,01,11,02,4.80
2005,11,01,11,03,4.20
2005,11,01,11,04,5.00
2005,11,01,11,05,5.60
2005,11,01,11,06,5.10
2005,11,01,11,07,3.70
2005,11,01,11,08,3.60
2005,11,01,11,09,3.30
2005,11,01,11,10,2.70
2005,11,01,11,11,3.50
2005,11,01,11,12,4.10
2005,11,01,11,13,5.90
2005,11,01,11,14,4.10
2005,11,01,11,15,5.80
2005,11,01,11,16,5.30
2005,11,01,11,17,3.50
2005,11,01,11,18,3.40
2005,11,01,11,19,3.30
2005,11,01,11,20,4.00
2005,11,01,11,21,5.00
2005,11,01,11,22,6.40
2005,11,01,11,23,4.70
2005,11,01,11,24,5.00
2005,11,01,11,25,4.40
2005,11,01,11,26,3.00
2005,11,01,11,27,3.40
2005,11,01,11,28,4.30
2005,11,01,11,29,4.30
2005,11,01,11,30,4.70
2005,11,01,11,31,4.60
2005,11,01,11,32,4.30
2005,11,01,11,33,4.80
2005,11,01,11,34,4.00
2005,11,01,11,35,3.10
2005,11,01,11,36,2.20
2005,11,01,11,37,2.00
2005,11,01,11,38,3.00
2005,11,01,11,39,2.70
2005,11,01,11,40,4.00
2005,11,01,11,41,3.50
2005,11,01,11,42,3.10
2005,11,01,11,43,3.50
2005,11,01,11,44,4.30
2005,11,01,11,45,2.70
2005,11,01,11,46,0.90
2005,11,01,11,47,3.70
2005,11,01,11,48,3.10
2005,11,01,11,49,3.20
2005,11,01,11,50,3.90
2005,11,01,11,51,4.30
2005,11,01,11,52,5.80
2005,11,01,11,53,5.80
2005,11,01,11,54,5.40
2005,11,01,11,55,6.00
2005,11,01,11,56,4.60
2005,11,01,11,57,4.70
2005,11,01,11,58,4.70
2005,11,01,11,59,3.40
2005,11,01,12,00,2.30
2005,11,01,12,01,5.40
2005,11,01,12,02,4.80
2005,11,01,12,03,4.50
2005,11,01,12,04,3.40
2005,11,01,12,05,5.40
2005,11,01,12,06,6.40
2005,11,01,12,07,4.40
2005,11,01,12,08,4.30
2005,11,01,12,09,4.80
2005,11,01,12,10,2.10
2005,11,01,12,11,3.60
2005,11,01,12,12,3.30
2005,11,01,12,13,2.60
2005,11,01,12,14,2.90
2005,11,01,12,15,1.70
2005,11,01,12,16,1.60
2005,11,01,12,17,4.20
2005,11,01,12,18,5.60
2005,11,01,12,19,2.80
2005,11,01,12,20,2.80
2005,11,01,12,21,1.50
2005,11,01,12,22,1.90
2005,11,01,12,23,4.10
2005,11,01,12,24,4.20
2005,11,01,12,25,3.80
2005,11,01,12,26,5.60
2005,11,01,12,27,4.70
2005,11,01,12,28,4.70
2005,11,01,12,29,3.20
2005,11,01,12,30,4.50
2005,11,01,12,31,3.40
2005,11,01,12,32,1.80
2005,11,01,12,33,2.70
2005,11,01,12,34,3.50
2005,11,01,12,35,3.40
2005,11,01,12,36,6.50
2005,11,01,12,37,5.10
2005,11,01,12,38,7.50
2005,11,01,12,39,11.10
2005,11,01,12,40,8.90
2005,11,01,12,41,8.50
2005,11,01,12,42,8.20
2005,11,01,12,43,4.40
2005,11,01,12,44,5.30
2005,11,01,12,45,6.80
2005,11,01,12,46,5.30
2005,11,01,12,47,6.80
2005,11,01,12,48,5.80
2005,11,01,12,49,4.00
2005,11,01,12,50,7.70
2005,11,01,12,51,3.70
2005,11,01,12,52,7.00
2005,11,01,12,53,6.40
2005,11,01,12,54,8.60
2005,11,01,12,55,5.30
2005,11,01,12,56,6.00
2005,11,01,12,57,4.40
2005,11,01,12,58,4.20
2005,11,01,12,59,5.60
2005,11,01,13,00,5.20
2005,11,01,13,01,7.10
2005,11,01,13,02,8.00
2005,11,01,13,03,7.40
2005,11,01,13,04,3.60
2005,11,01,13,05,5.20
2005,11,01,13,06,4.30
2005,11,01,13,07,5.90
2005,11,01,13,08,4.10
2005,11,01,13,09,6.70
2005,11,01,13,10,5.10
2005,11,01,13,11,4.10
2005,11,01,13,12,4.20
2005,11,01,13,13,6.20
2005,11,01,13,14,6.00
2005,11,01,13,15,5.00
2005,11,01,13,16,6.10
2005,11,01,13,17,6.20
2005,11,01,13,18,6.30
2005,11,01,13,19,8.50
2005,11,01,13,20,10.90
2005,11,01,13,21,7.50
2005,11,01,13,22,8.00
2005,11,01,13,23,5.20
2005,11,01,13,24,3.90
2005,11,01,13,25,4.50
2005,11,01,13,26,7.20
2005,11,01,13,27,4.70
2005,11,01,13,28,4.70
2005,11,01,13,29,6.30
2005,11,01,13,30,3.50
2005,11,01,13,31,4.40
2005,11,01,13,32,6.30
2005,11,01,13,33,8.40
2005,11,01,13,34,6.90
2005,11,01,13,35,5.00
2005,11,01,13,36,6.70
2005,11,01,13,37,7.30
2005,11,01,13,38,6.40
2005,11,01,13,39,7.20
2005,11,01,13,40,7.70
2005,11,01,13,41,6.70
2005,11,01,13,42,7.40
2005,11,01,13,43,7.20
2005,11,01,13,44,6.00
2005,11,01,13,45,9.70
2005,11,01,13,46,11.80
2005,11,01,13,47,9.30
2005,11,01,13,48,7.60
2005,11,01,13,49,8.40
2005,11,01,13,50,8.70
2005,11,01,13,51,12.10
2005,11,01,13,52,7.10
2005,11,01,13,53,7.80
2005,11,01,13,54,6.90
2005,11,01,13,55,9.60
2005,11,01,13,56,6.10
2005,11,01,13,57,6.10
2005,11,01,13,58,10.80
2005,11,01,13,59,6.70
2005,11,01,14,00,5.30
2005,11,01,14,01,4.50
2005,11,01,14,02,4.80
2005,11,01,14,03,4.80
2005,11,01,14,04,4.90
2005,11,01,14,05,7.60
2005,11,01,14,06,7.80
2005,11,01,14,07,10.90
2005,11,01,14,08,5.00
2005,11,01,14,09,8.40
2005,11,01,14,10,8.10
2005,11,01,14,11,10.50
2005,11,01,14,12,8.60
2005,11,01,14,13,9.40
2005,11,01,14,14,8.60
2005,11,01,14,15,8.10
2005,11,01,14,16,6.30
2005,11,01,14,17,8.40
2005,11,01,14,18,12.00
2005,11,01,14,19,9.90
2005,11,01,14,20,11.30
2005,11,01,14,21,11.00
2005,11,01,14,22,7.60
2005,11,01,14,23,8.00
2005,11,01,14,24,10.40
2005,11,01,14,25,4.60
2005,11,01,14,26,7.40
2005,11,01,14,27,7.50
2005,11,01,14,28,5.70
2005,11,01,14,29,6.40
2005,11,01,14,30,6.70
2005,11,01,14,31,6.80
2005,11,01,14,32,6.90
2005,11,01,14,33,4.00
2005,11,01,14,34,8.10
2005,11,01,14,35,10.30
2005,11,01,14,36,13.80
2005,11,01,14,37,11.50
2005,11,01,14,38,8.40
2005,11,01,14,39,15.20
2005,11,01,14,40,13.80
2005,11,01,14,41,10.00
2005,11,01,14,42,9.00
2005,11,01,14,43,7.50
2005,11,01,14,44,7.10
2005,11,01,14,45,10.50
2005,11,01,14,46,13.20
2005,11,01,14,47,6.60
2005,11,01,14,48,10.20
2005,11,01,14,49,6.50
2005,11,01,14,50,5.50
2005,11,01,14,51,4.70
2005,11,01,14,52,6.00
2005,11,01,14,53,6.20
2005,11,01,14,54,4.00
2005,11,01,14,55,6.10
2005,11,01,14,56,8.40
2005,11,01,14,57,8.00
2005,11,01,14,58,7.60
2005,11,01,14,59,6.80
2005,11,01,15,00,12.40
2005,11,01,15,01,12.50
2005,11,01,15,02,8.70
2005,11,01,15,03,7.70
2005,11,01,15,04,3.50
2005,11,01,15,05,3.80
2005,11,01,15,06,6.40
2005,11,01,15,07,6.00
2005,11,01,15,08,8.70
2005,11,01,15,09,8.60
2005,11,01,15,10,8.40
2005,11,01,15,11,8.20
2005,11,01,15,12,8.90
2005,11,01,15,13,8.40
2005,11,01,15,14,4.10
2005,11,01,15,15,8.20
2005,11,01,15,16,4.70
2005,11,01,15,17,3.80
2005,11,01,15,18,8.50
2005,11,01,15,19,11.20
2005,11,01,15,20,7.20
2005,11,01,15,21,5.90
2005,11,01,15,22,3.50
2005,11,01,15,23,5.30
2005,11,01,15,24,5.20
2005,11,01,15,25,6.00
2005,11,01,15,26,6.40
2005,11,01,15,27,12.70
2005,11,01,15,28,9.30
2005,11,01,15,29,7.50
2005,11,01,15,30,9.00
2005,11,01,15,31,7.80
2005,11,01,15,32,6.00
2005,11,01,15,33,4.50
2005,11,01,15,34,7.00
2005,11,01,15,35,7.90
2005,11,01,15,36,9.00
2005,11,01,15,37,4.60
2005,11,01,15,38,5.00
2005,11,01,15,39,8.70
2005,11,01,15,40,7.00
2005,11,01,15,41,8.90
2005,11,01,15,42,6.30
2005,11,01,15,43,6.10
2005,11,01,15,44,9.10
2005,11,01,15,45,12.00
2005,11,01,15,46,8.10
2005,11,01,15,47,7.80
2005,11,01,15,48,3.50
2005,11,01,15,49,1.60
2005,11,01,15,50,4.30
2005,11,01,15,51,6.00
2005,11,01,15,52,9.70
2005,11,01,15,53,10.00
2005,11,01,15,54,8.00
2005,11,01,15,55,8.60
2005,11,01,15,56,9.60
2005,11,01,15,57,6.80
2005,11,01,15,58,3.30
2005,11,01,15,59,4.90
2005,11,01,16,00,6.20
2005,11,01,16,01,5.60
2005,11,01,16,02,7.70
2005,11,01,16,03,6.40
2005,11,01,16,04,7.40
2005,11,01,16,05,7.20
2005,11,01,16,06,7.30
2005,11,01,16,07,5.60
2005,11,01,16,08,6.40
2005,11,01,16,09,8.60
2005,11,01,16,10,8.70
2005,11,01,16,11,8.20
2005,11,01,16,12,9.00
2005,11,01,16,13,7.80
2005,11,01,16,14,5.10
2005,11,01,16,15,9.00
2005,11,01,16,16,5.20
2005,11,01,16,17,6.80
2005,11,01,16,18,5.30
2005,11,01,16,19,4.40
2005,11,01,16,20,9.10
2005,11,01,16,21,10.50
2005,11,01,16,22,6.50
2005,11,01,16,23,7.20
2005,11,01,16,24,6.30
2005,11,01,16,25,5.10
2005,11,01,16,26,6.40
2005,11,01,16,27,5.30
2005,11,01,16,28,5.90
2005,11,01,16,29,6.90
2005,11,01,16,30,4.90
2005,11,01,16,31,4.30
2005,11,01,16,32,7.70
2005,11,01,16,33,6.90
2005,11,01,16,34,5.00
2005,11,01,16,35,3.90
2005,11,01,16,36,5.60
2005,11,01,16,37,7.00
2005,11,01,16,38,8.10
2005,11,01,16,39,1.90
2005,11,01,16,40,4.50
2005,11,01,16,41,5.20
2005,11,01,16,42,4.20
2005,11,01,16,43,3.50
2005,11,01,16,44,2.50
2005,11,01,16,45,4.00
2005,11,01,16,46,2.60
2005,11,01,16,47,1.70
2005,11,01,16,48,0.40
2005,11,01,16,49,1.10
2005,11,01,16,50,0.00
2005,11,01,16,51,1.10
2005,11,01,16,52,1.40
2005,11,01,16,53,0.20
2005,11,01,16,54,0.00
2005,11,01,16,55,1.00
2005,11,01,16,56,0.40
2005,11,01,16,57,0.50
2005,11,01,16,58,0.20
2005,11,01,16,59,0.20
2005,11,01,17,00,0.10
2005,11,01,17,01,2.20
2005,11,01,17,02,1.10
2005,11,01,17,03,1.50
2005,11,01,17,04,1.60
2005,11,01,17,05,0.30
2005,11,01,17,06,1.80
2005,11,01,17,07,4.10
2005,11,01,17,08,1.80
2005,11,01,17,09,1.90
2005,11,01,17,10,0.40
2005,11,01,17,11,1.00
2005,11,01,17,12,0.00
2005,11,01,17,13,0.00
2005,11,01,17,14,0.00
2005,11,01,17,15,1.40
2005,11,01,17,16,0.50
2005,11,01,17,17,1.80
2005,11,01,17,18,3.20
2005,11,01,17,19,3.10
2005,11,01,17,20,2.70
2005,11,01,17,21,3.90
2005,11,01,17,22,2.20
2005,11,01,17,23,2.10
2005,11,01,17,24,2.60
2005,11,01,17,25,1.90
2005,11,01,17,26,2.60
2005,11,01,17,27,3.10
2005,11,01,17,28,3.60
2005,11,01,17,29,3.00
2005,11,01,17,30,3.20
2005,11,01,17,31,2.50
2005,11,01,17,32,3.30
2005,11,01,17,33,4.40
2005,11,01,17,34,4.00
2005,11,01,17,35,2.50
2005,11,01,17,36,2.40
2005,11,01,17,37,2.70
2005,11,01,17,38,3.70
2005,11,01,17,39,3.40
2005,11,01,17,40,2.20
2005,11,01,17,41,0.60
2005,11,01,17,42,1.40
2005,11,01,17,43,2.30
2005,11,01,17,44,3.60
2005,11,01,17,45,3.30
2005,11,01,17,46,2.00
2005,11,01,17,47,2.60
2005,11,01,17,48,1.00
2005,11,01,17,49,0.60
2005,11,01,17,50,1.90
2005,11,01,17,51,2.50
2005,11,01,17,52,2.50
2005,11,01,17,53,0.80
2005,11,01,17,54,0.60
2005,11,01,17,55,0.10
2005,11,01,17,56,1.50
2005,11,01,17,57,3.40
2005,11,01,17,58,3.90
2005,11,01,17,59,4.10
2005,11,01,18,00,4.70
2005,11,01,18,01,3.70
2005,11,01,18,02,4.60
2005,11,01,18,03,4.90
2005,11,01,18,04,5.60